COSMOS 2547 (705K)

Last updated on Sat Nov 15 2025 00:03:21 GMT+0000 (Coordinated Universal Time)

1 46805U 20075A 25317.08347628 -.00000001 00000+0 00000+0 0 9993 2 46805 64.5953 199.6868 0006640 231.7557 128.2566 2.13099867 39300
UTC large
Height (km)
Speed (km/s)
/
Latitude / Longitude
Inclination (degrees)
Orbital Period (minutes)
Azimuth
Elevation
Range (km)
Doppler Factor

Next 0 passes for location: London (51.5072 / 0.1276)

Sorry there are no passes over London.